weather.gov     
National Weather Service

Regional Weather Roundup
NWS Homepage
This page is being discontinued on March 12, 2014.
The same data is available at this site. Please update your bookmarks.
Thank you, and we apologize for the inconvenience.
Please send an email to SR-SRH.Webmaster@noaa.gov with any concerns.


Current Version
Previous Version:    01  02  03  04  05  06  07  08  09  10  11  12  13  14  15  16  17  18  19  20  21  22  23  24  25  26  27  28  29  30  
   31  32  
[Printable]
605
ASUS44 KBMX 220910
RWRAL

ALABAMA REGIONAL WEATHER ROUNDUP
NATIONAL WEATHER SERVICE BIRMINGHAM AL
400 AM CDT WED OCT 22 2014

NOTE: "FAIR" INDICATES FEW OR NO CLOUDS BELOW 12,000 FEET
WITH NO SIGNIFICANT WEATHER AND/OR OBSTRUCTIONS TO VISIBILITY.

THE REMARK "TC" DENOTES TEMPERATURE IN DEGREES CELSIUS.

ALZ001>011-014-016>018-020-221000-
NORTH ALABAMA

CITY           SKY/WX    TMP DP  RH WIND       PRES   REMARKS
MUSCLE SHOALS  CLEAR     52  44  74 NE6       30.14R
HUNTSVILLE     CLEAR     51  43  74 NE7       30.11R
DECATUR        CLEAR     49  42  77 NE3       30.13R
HALEYVILLE     FAIR      44  43  97 CALM      30.14R
GADSDEN        CLEAR     45  39  81 CALM      30.10S
$$

ALZ012-013-022-023-030>036-040>044-221000-
WEST CENTRAL ALABAMA

CITY           SKY/WX    TMP DP  RH WIND       PRES   REMARKS
TUSCALOOSA     CLEAR     53  48  83 N8        30.08S
$$

ALZ015-024>027-033>036-040>044-221000-
CENTRAL ALABAMA

CITY           SKY/WX    TMP DP  RH WIND       PRES   REMARKS
BIRMINGHAM     CLEAR     49  46  90 CALM      30.10S
MONTGOMERY     FOG       50  48  93 CALM      30.05R VSB 3/4
SHELBY CO ARPT CLEAR     57  47  69 VRB3      30.08R
MAXWELL AFB    CLEAR     52  52 100 CALM      30.04S FOG
GREENVILLE     FAIR      49  47  93 N5        30.03R
$$

ALZ019-021-028-029-037-038-045>048-221000-
EAST CENTRAL ALABAMA

CITY           SKY/WX    TMP DP  RH WIND       PRES   REMARKS
ANNISTON       CLEAR     48  46  93 E3        30.08R
ALEXANDER CITY CLEAR     54  48  82 N5        30.06R
AUBURN         CLEAR     52  45  76 N7        30.06S
$$

ALZ051>064-221000-
SOUTHWEST ALABAMA

CITY           SKY/WX    TMP DP  RH WIND       PRES   REMARKS
MOBILE         CLEAR     59  54  83 N8        30.03S
BROOKLEY FIELD CLEAR     54  54 100 NW6       30.04R
EVERGREEN      CLEAR     52  49  89 CALM      30.03S
$$

ALZ049-050-065>069-221000-
SOUTHEAST ALABAMA

CITY           SKY/WX    TMP DP  RH WIND       PRES   REMARKS
DOTHAN         CLEAR     55  51  86 CALM      30.04S
OZARK          CLEAR     55  51  87 CALM      30.02R
TROY           CLEAR     46  45  96 CALM      30.03S
EUFAULA        FOG       48  46  93 CALM      30.02R VSB 1/4
$$




U.S. Dept. of Commerce
NOAA National Weather Service
1325 East West Highway
Silver Spring, MD 20910
E-mail: w-nws.webmaster@noaa.gov
Page last modified: May 16, 2007
NATIONAL WEATHER SERVICE: for Safety, for Work, for Fun - FOR LIFE